Dewpoint
56 56 55 55 55 55 55 56 56 57 57 57 56 56 56 56 56 57 56 56 56 56 56 56 56 56 56 56 56 56 57 55 54 52 51 44 49 54 66 66 65 65 65 46 35 31 38 42 41 44 49 51 53 64 67 67 68 66 59 58 55 57 57 60 59 60 62 59 61 62 61 57 56 60 60 59 58 58 58 57 59 60 60 62 64 65 66 67
56 55 56 56 56 56 56 57 56 56 57 57 56 56 56 56 56 56 56 56 56 56 56 56 56 56 56 56 57 57 56 55 53 52 50 55 60 61 66 69 68 68 64 43 31 28 32 36 39 44 46 50 57 63 66 65 67 62 59 58 54 58 59 62 64 62 62 59 63 64 62 59 59 57 59 56 56 56 55 57 58 59 61 63 64 65 66 67
56 56 56 56 56 56 56 56 56 56 56 56 56 56 56 56 56 56 56 56 56 56 56 56 56 56 56 56 57 58 56 53 53 51 51 66 62 67 65 67 71 69 44 36 34 30 33 38 39 43 45 47 58 63 64 65 66 65 58 56 57 62 62 63 64 65 66 66 63 62 64 61 62 57 59 55 54 56 56 56 58 59 61 62 64 65 66 66
56 56 56 56 56 56 56 56 56 56 55 55 55 56 55 55 55 56 56 56 56 56 56 55 56 55 56 57 57 57 54 53 41 43 47 68 68 67 67 67 72 67 30 30 31 29 31 29 30 37 41 45 52 63 62 66 64 65 61 58 59 64 62 64 65 65 66 68 64 63 64 61 63 58 56 55 53 55 57 58 58 58 60 62 63 64 65 65
56 56 56 56 56 56 55 55 56 55 55 56 56 56 56 56 56 56 56 56 55 55 55 55 55 56 56 57 58 56 52 37 40 45 47 72 70 66 68 70 74 58 30 28 26 25 25 27 32 37 33 39 50 62 61 64 67 63 62 64 64 63 63 65 64 66 66 64 63 62 61 61 65 62 56 54 52 52 56 57 59 59 61 62 62 63 64 64
56 56 56 56 57 57 57 57 56 56 56 56 55 55 55 55 55 55 55 55 55 55 55 55 55 56 57 57 56 55 42 33 39 39 77 71 70 67 68 70 74 55 30 25 23 26 22 28 28 33 43 41 58 58 62 64 66 59 63 63 64 64 63 65 65 66 66 64 63 61 62 64 64 61 56 54 53 55 60 58 59 59 61 62 62 62 63 63
56 56 56 56 56 56 56 56 56 56 56 56 55 55 55 55 55 55 55 55 55 54 55 55 56 56 57 57 55 52 37 29 42 39 71 73 73 69 69 69 71 41 29 23 26 27 29 33 27 35 43 43 58 60 64 64 63 63 62 62 63 64 63 65 65 67 66 63 63 64 65 62 62 56 61 54 58 59 59 59 59 59 60 62 61 62 62 62
56 56 56 56 56 56 56 56 55 55 55 55 55 55 55 55 55 55 55 54 55 55 55 56 56 57 57 55 51 43 43 35 40 51 73 72 71 70 68 65 45 33 27 22 22 24 31 32 35 43 42 55 59 60 63 62 63 62 61 63 63 64 65 66 66 66 66 66 66 64 60 60 63 60 59 56 58 58 58 59 59 59 60 61 61 61 62 62
56 56 56 56 56 56 56 56 56 56 56 56 55 55 55 55 55 55 55 55 55 55 56 56 57 57 56 55 50 41 38 43 47 67 62 62 61 60 57 53 40 29 27 26 24 25 35 35 36 41 47 50 57 61 62 61 61 63 62 63 63 64 65 66 65 65 66 65 66 63 62 63 64 65 56 58 57 58 58 58 58 58 59 60 61 61 62 62
57 57 57 56 56 56 56 56 56 56 56 55 55 55 54 55 54 54 55 55 55 55 56 56 57 57 55 52 45 35 38 51 63 62 56 58 48 40 38 36 34 29 28 28 35 37 36 37 41 45 42 40 56 59 61 62 61 63 62 62 63 64 64 65 64 65 65 64 64 63 61 61 63 60 52 58 57 57 57 57 58 57 58 59 60 61 61 62
56 56 56 56 56 56 56 56 56 55 55 55 55 55 55 55 55 55 55 55 55 56 56 57 57 57 54 52 20 18 35 52 56 55 53 50 40 34 31 32 30 28 27 31 33 36 37 39 44 40 43 56 63 64 63 63 63 63 62 62 63 64 64 64 64 64 65 63 64 63 61 63 62 59 53 56 57 57 57 57 57 57 58 59 59 60 61 61
56 56 56 56 56 56 56 56 55 55 55 55 55 55 55 55 55 55 55 55 56 57 57 57 58 56 54 49 33 19 32 53 54 51 48 41 36 34 33 30 28 27 25 29 32 34 38 39 40 39 34 62 61 64 63 63 63 63 63 59 60 63 62 64 62 64 65 63 64 64 59 57 59 56 56 56 58 57 57 56 56 57 57 58 58 59 60 60
56 56 56 56 56 56 56 56 55 56 55 55 55 55 55 55 55 56 56 56 56 57 57 57 58 56 53 30 42 41 43 39 40 50 46 39 30 30 29 27 27 25 25 26 28 32 34 35 37 37 36 60 61 62 64 64 64 63 62 60 60 60 59 62 64 64 63 63 64 63 52 55 58 59 60 59 57 56 57 55 56 56 57 57 58 58 58 59
56 56 56 56 56 56 56 56 56 55 55 55 55 55 55 55 56 56 56 56 57 57 57 58 56 56 51 38 36 50 50 47 43 44 45 42 31 24 23 22 26 26 32 29 29 31 34 35 36 34 34 59 61 65 63 63 64 60 60 61 56 57 56 62 63 64 62 65 67 65 54 55 58 59 62 60 57 55 54 55 55 56 56 56 57 57 57 57
56 56 56 56 56 56 56 56 55 55 55 55 55 55 55 55 56 56 57 57 57 57 57 58 56 51 46 44 48 51 62 61 52 37 43 35 30 25 20 20 17 21 24 27 28 31 33 32 34 33 59 63 63 62 60 60 62 61 54 53 56 56 57 61 64 64 61 64 66 63 54 55 56 57 62 60 57 55 54 54 54 55 55 55 55 56 56 56
56 56 56 56 56 56 55 55 55 55 55 55 55 55 55 55 56 56 57 58 58 58 57 55 56 52 47 41 39 57 44 33 29 32 37 37 29 24 24 19 20 18 18 16 20 22 23 30 26 43 62 62 60 59 58 57 56 57 54 52 54 57 58 59 62 63 64 64 64 63 55 56 56 60 60 59 57 56 54 53 53 54 54 54 54 55 55 55
56 56 56 56 55 55 55 55 55 55 55 55 55 55 55 55 56 57 58 59 58 57 56 51 56 54 36 41 46 41 37 34 30 30 32 35 28 27 22 21 19 18 21 18 22 30 31 31 37 59 56 59 59 57 54 50 51 52 55 52 56 56 57 56 61 63 65 64 61 62 58 58 59 59 57 58 57 56 53 53 53 53 53 53 54 54 54 55
56 56 56 56 55 55 55 55 55 55 55 54 54 54 53 56 58 57 58 58 57 55 52 54 52 46 32 38 29 29 37 32 33 31 30 32 28 28 26 25 23 26 32 31 31 26 30 27 31 46 56 57 56 53 50 48 50 52 52 53 54 57 56 56 57 60 64 63 61 61 60 60 60 60 56 56 57 55 53 53 53 52 52 52 53 53 53 54
56 56 55 55 55 55 55 55 55 55 55 55 55 56 56 56 55 54 52 54 48 40 32 44 40 29 21 19 29 32 37 33 35 31 30 29 31 27 27 29 28 26 26 29 28 29 25 27 33 54 55 55 55 52 49 49 51 52 53 54 54 55 55 56 58 63 62 62 59 59 57 58 59 61 62 61 61 55 53 53 53 52 52 52 53 53 53 54
56 55 55 55 55 55 55 55 54 54 54 52 49 54 48 36 34 32 52 49 45 35 32 33 42 40 39 34 32 31 34 37 31 29 30 30 26 24 23 25 26 27 26 26 26 33 24 25 27 42 55 55 55 54 50 50 51 53 54 55 55 55 57 59 61 63 64 60 60 60 59 58 58 60 61 64 63 58 53 52 52 52 53 52 52 52 53 53
55 55 55 55 55 55 55 55 54 54 52 51 50 37 33 34 34 31 33 35 45 43 36 35 41 37 33 35 34 33 26 33 32 32 30 35 26 23 23 21 22 24 23 26 23 26 21 21 21 26 31 54 54 54 53 51 53 53 54 54 54 54 55 59 61 63 65 60 58 60 59 58 58 60 61 63 59 57 52 51 51 51 53 52 52 52 52 53
55 55 55 54 54 54 54 54 54 53 52 49 46 36 36 36 35 33 33 32 34 39 41 38 42 41 42 40 38 38 34 26 23 24 28 30 27 23 22 19 21 19 23 21 22 20 23 19 18 20 25 28 31 36 44 49 51 53 53 54 54 55 59 61 62 61 62 60 58 58 58 59 60 61 63 62 62 62 63 56 51 51 52 53 52 52 52 52
55 55 55 54 54 54 53 54 53 52 50 43 36 37 38 40 42 40 37 33 33 35 35 37 40 40 40 41 37 32 26 22 20 24 29 29 24 24 19 16 19 21 18 20 20 23 18 17 19 18 20 22 22 23 23 25 46 52 54 53 52 56 54 52 59 59 59 59 58 58 58 58 61 62 62 64 63 64 65 65 64 58 54 53 52 52 52 52
55 55 55 54 54 53 53 53 52 51 50 41 40 39 39 41 41 39 36 33 33 35 36 35 37 39 38 30 22 24 22 22 25 25 33 26 24 25 17 16 15 14 14 18 19 17 17 18 18 19 16 18 19 18 20 26 50 52 53 53 54 57 54 54 56 58 59 59 60 58 57 55 58 58 59 63 65 64 64 66 65 64 63 62 60 57 53 52
55 55 55 54 54 53 52 51 48 47 45 43 43 43 43 43 45 39 35 35 35 35 39 22 31 20 21 23 25 23 22 21 25 27 33 26 26 23 23 20 14 12 12 14 18 18 16 17 17 16 15 13 15 14 15 34 50 50 53 53 54 57 57 58 58 57 56 54 57 56 50 51 56 57 58 60 63 62 64 62 63 62 62 63 61 56 55 55
55 55 54 54 54 53 52 42 47 44 42 37 37 39 41 41 43 41 37 34 29 33 14 15 20 15 21 18 24 23 21 19 19 20 32 28 41 24 25 20 16 13 13 14 11 15 14 17 14 13 12 11 11 10 10 35 44 48 49 53 55 56 58 58 57 56 52 51 55 57 49 47 55 55 57 59 60 60 63 63 62 61 61 62 62 59 54 54
54 54 54 53 53 52 33 28 43 44 32 35 39 41 40 40 48 38 32 28 15 18 14 11 18 19 20 18 23 26 22 24 29 31 34 49 26 32 23 22 21 21 18 18 14 6 14 15 13 13 11 10 7 6 7 31 42 45 42 53 57 57 58 57 57 55 52 58 57 56 55 48 50 54 57 58 58 58 60 61 62 62 61 61 62 61 56 54
54 54 53 53 52 52 45 48 44 38 33 32 43 42 41 44 45 39 32 19 16 16 16 16 19 24 22 23 27 23 26 27 22 26 30 36 25 23 23 20 19 16 18 21 17 15 11 9 11 11 13 9 4 4 3 30 36 37 44 56 56 57 57 57 56 53 54 54 51 55 56 48 48 54 58 58 57 57 57 59 60 62 62 62 62 62 57 55
54 53 53 53 52 50 52 51 47 40 40 44 44 42 41 47 38 34 29 16 18 15 23 18 19 20 21 19 20 21 20 26 22 25 25 25 25 21 20 19 18 18 19 19 18 19 20 13 9 10 9 8 8 6 12 30 27 41 57 58 58 57 56 56 53 52 51 50 49 53 55 46 47 55 56 58 57 56 56 57 58 60 61 62 62 62 59 55
53 53 52 52 50 50 51 52 48 45 48 45 43 42 44 39 36 31 18 13 17 12 18 17 18 15 20 18 18 22 20 22 27 23 22 23 23 21 21 22 20 21 19 24 20 20 20 33 31 11 8 8 8 6 18 24 49 57 57 55 55 55 55 54 52 49 45 40 46 53 54 50 44 52 54 55 55 56 55 55 57 59 61 61 61 62 61 56
52 52 51 51 47 49 49 36 38 46 48 45 43 41 41 39 37 28 14 9 16 12 16 17 16 19 17 18 15 16 21 23 27 22 20 20 17 20 20 17 24 22 25 22 19 20 18 18 29 27 31 24 14 25 29 50 56 55 53 53 51 52 49 49 48 49 39 37 41 48 54 53 45 48 55 55 54 55 53 52 54 56 59 60 61 61 61 57
51 51 51 50 50 52 40 30 33 41 43 44 41 40 36 29 28 17 17 28 10 9 11 10 16 18 18 18 17 19 17 23 27 22 17 16 18 17 17 19 29 19 22 21 15 18 15 14 16 22 49 25 26 25 44 54 52 53 51 49 46 44 44 43 45 41 39 37 47 50 53 51 50 50 53 55 55 55 53 51 53 56 58 59 60 60 61 58
50 50 50 51 52 50 50 44 46 45 44 44 42 40 34 28 11 21 19 17 12 13 7 17 14 16 19 15 14 16 21 19 20 21 17 18 17 17 19 17 23 19 19 26 18 15 14 16 19 23 23 32 25 29 40 37 42 50 48 46 45 42 38 35 37 38 38 42 53 51 53 48 50 49 52 53 56 56 56 54 54 57 58 59 59 60 61 58
50 50 48 51 51 50 49 54 50 46 42 50 37 31 24 15 16 53 23 10 7 13 12 11 9 16 17 14 16 18 16 18 15 16 22 22 16 19 20 20 21 20 20 24 16 15 14 12 12 22 21 24 26 25 33 30 45 49 48 45 45 44 39 35 35 36 38 41 50 53 46 44 45 45 55 55 55 56 57 57 57 58 59 59 59 60 60 59
50 49 50 51 52 52 51 50 47 50 46 36 34 34 24 21 29 22 13 10 10 12 8 10 14 10 12 17 14 19 18 20 20 22 21 18 16 18 21 18 24 21 21 17 29 25 15 18 19 24 23 25 24 26 22 33 33 29 36 40 45 44 39 37 36 38 42 47 48 48 46 48 48 51 56 59 58 57 58 58 58 58 59 59 59 60 60 59
49 51 50 49 51 49 51 51 48 46 40 34 37 31 26 29 20 12 4 10 10 5 5 9 10 9 12 13 15 16 18 18 17 20 21 20 19 18 21 21 19 22 19 20 26 20 26 20 19 21 24 22 23 26 26 21 23 22 32 32 36 37 32 34 42 43 44 44 44 49 47 48 50 49 54 58 58 58 58 58 58 58 59 59 58 59 60 59
48 52 43 44 47 49 50 48 47 44 37 33 31 25 33 33 24 13 42 7 5 7 12 8 10 13 14 14 14 13 15 13 15 19 19 20 19 19 20 19 21 20 21 19 18 21 20 18 21 20 19 21 23 25 24 24 25 16 23 24 25 27 28 26 27 30 34 35 36 46 46 45 44 41 54 56 57 57 57 58 58 59 59 58 58 59 60 59
51 52 53 51 42 48 48 47 46 41 35 33 31 43 40 30 32 10 8 9 8 9 9 11 9 17 17 14 13 14 12 12 13 21 20 21 19 22 19 17 18 21 22 22 21 23 21 19 20 21 21 21 19 20 18 20 21 15 25 17 13 18 19 25 30 23 23 27 34 40 44 46 46 45 53 55 55 57 57 57 58 59 59 59 58 59 61 61
52 40 32 36 42 48 47 48 44 39 33 27 32 27 44 36 35 17 11 13 10 10 8 10 13 15 19 16 16 16 14 10 15 22 26 22 29 29 16 19 18 19 23 24 20 26 25 18 20 21 20 21 18 19 21 21 16 15 16 12 19 24 25 21 21 27 26 24 31 34 40 38 48 49 57 57 56 57 57 57 57 59 60 60 60 59 60 61
41 31 31 39 38 48 49 44 35 29 25 22 30 30 29 23 23 20 12 15 8 11 15 18 14 17 19 18 17 15 16 17 16 22 25 21 24 27 18 19 19 19 24 24 22 26 26 25 19 19 22 19 18 20 18 18 14 13 11 10 12 22 22 17 27 24 23 29 33 33 32 38 49 58 59 60 60 58 58 57 58 59 60 60 60 60 60 61
49 34 32 36 41 49 42 26 28 29 27 30 33 26 25 23 19 15 12 15 11 14 11 15 15 17 17 16 14 18 18 19 19 17 18 20 20 25 28 19 21 19 22 16 18 23 26 27 23 24 19 19 18 22 20 19 15 11 11 12 10 9 12 11 15 22 31 29 28 32 32 39 52 60 60 60 61 59 59 58 58 59 60 60 60 60 61 62
35 28 26 30 38 35 29 27 24 31 27 24 18 25 25 40 17 8 12 12 10 8 15 16 18 20 19 19 18 17 21 22 21 19 19 15 19 24 17 19 20 23 15 19 18 21 27 34 28 24 22 20 22 22 27 30 20 24 30 31 12 13 16 18 11 16 24 31 38 36 40 47 56 59 60 61 62 62 62 60 59 60 60 61 61 61 62 64
38 31 34 38 38 33 29 31 45 36 25 26 25 20 23 20 9 8 12 12 8 11 10 14 18 18 18 19 18 19 21 19 19 22 19 18 17 17 19 18 20 22 20 21 28 28 52 30 25 31 33 34 31 30 32 29 28 29 30 38 38 27 14 15 16 25 22 31 36 38 40 46 55 58 59 61 62 63 63 63 62 60 60 61 61 61 62 64
39 40 40 42 42 29 26 26 26 25 28 32 27 22 17 14 15 12 12 14 9 8 9 13 14 22 22 21 24 25 26 20 18 19 20 21 18 21 20 20 20 20 18 18 28 34 32 34 28 27 28 28 27 26 24 24 27 29 28 35 43 43 31 17 27 28 19 25 37 23 31 45 55 58 60 61 62 62 63 64 64 63 63 64 63 63 63 64
46 45 45 46 49 32 28 23 23 23 30 24 18 15 14 14 17 14 11 10 17 7 13 13 14 14 23 23 28 28 26 19 22 20 18 20 21 26 21 21 23 28 35 27 53 34 32 36 31 23 24 22 22 22 24 23 23 28 34 44 46 48 41 20 14 28 13 36 45 43 44 51 55 57 58 60 61 61 62 63 64 64 64 64 64 64 65 65
35 29 33 44 44 39 36 36 23 37 31 28 24 20 14 9 8 14 13 11 10 13 12 15 17 20 22 26 27 28 27 28 21 25 28 23 23 22 24 23 28 40 61 54 50 43 37 41 36 33 28 26 27 30 29 36 32 41 43 46 48 49 48 38 35 29 28 46 49 50 51 52 54 56 57 59 60 60 61 62 63 64 64 64 64 64 65 65
46 38 42 43 46 41 42 38 41 43 40 34 23 22 18 17 10 12 16 10 10 15 19 22 23 22 24 26 28 28 31 29 32 28 29 25 26 23 25 27 22 45 57 41 51 36 36 36 37 36 34 36 32 36 38 40 41 42 44 47 50 50 50 50 45 39 41 45 44 51 53 52 53 56 57 58 59 60 61 62 63 63 63 64 64 64 65 65
39 40 48 48 40 37 41 38 43 44 41 26 22 20 15 16 15 17 13 14 17 18 19 19 15 21 27 27 30 28 32 32 33 29 34 31 32 25 20 22 23 37 39 23 34 30 30 31 35 37 34 33 36 38 40 44 44 45 46 48 49 50 51 50 49 50 47 45 46 52 54 53 54 56 58 58 59 60 61 63 63 62 62 63 63 63 64 64
48 48 48 51 46 46 44 44 47 46 36 31 26 23 19 13 10 14 12 11 16 18 21 20 15 16 22 32 33 30 36 27 27 34 32 28 29 29 23 25 22 26 22 25 27 38 29 31 38 36 33 34 35 36 41 43 44 44 45 46 48 48 49 51 51 52 52 52 53 54 54 54 56 57 58 59 60 60 62 63 63 62 62 63 62 62 63 64
49 49 49 52 52 50 50 47 43 38 34 37 26 25 18 17 6 7 9 13 20 14 19 13 15 24 27 32 38 30 32 31 30 26 31 27 22 31 27 27 23 27 24 24 26 28 24 29 36 34 40 37 37 39 41 44 44 45 46 47 47 49 49 50 50 53 53 53 54 54 53 53 57 58 58 61 61 62 62 62 62 62 62 63 62 62 62 63
47 52 53 50 48 47 50 44 41 39 29 32 36 36 32 19 16 12 13 12 12 20 20 13 18 29 31 27 27 28 31 35 36 25 31 22 20 26 23 25 26 24 26 26 27 31 27 25 35 36 29 33 37 40 42 40 40 40 40 42 48 48 48 50 50 52 49 50 52 50 50 52 56 57 58 59 60 61 61 61 61 62 62 62 62 62 63 63
48 52 53 51 46 53 44 44 43 38 34 34 40 38 35 32 27 21 21 25 19 20 15 13 22 28 33 30 30 30 26 34 31 21 26 18 16 26 25 23 24 26 29 27 33 29 30 29 27 29 29 29 33 37 38 36 36 37 38 37 41 49 50 52 54 55 55 52 49 48 50 56 56 57 57 58 59 59 60 60 60 61 61 62 62 63 63 63